TimeEST,TemperatureF,Dew PointF,Humidity,Sea Level PressureIn,VisibilityMPH,Wind Direction,Wind SpeedMPH,Gust SpeedMPH,PrecipitationIn,Events,Conditions,WindDirDegrees,DateUTC
12:07 AM,64.4,62.6,94,30.10,9.0,NNW,4.6,-,N/A,,Overcast,330,2012-11-17 05:07:00
12:20 AM,64.4,62.6,94,30.10,10.0,NNW,4.6,-,N/A,,Overcast,330,2012-11-17 05:20:00
12:53 AM,66.0,64.0,93,30.09,10.0,ENE,3.5,-,N/A,,Mostly Cloudy,70,2012-11-17 05:53:00
1:53 AM,66.9,64.0,90,30.08,10.0,ENE,3.5,-,N/A,,Overcast,70,2012-11-17 06:53:00
2:53 AM,66.9,64.9,93,30.07,10.0,Calm,Calm,-,N/A,,Overcast,0,2012-11-17 07:53:00
3:17 AM,66.2,64.4,94,30.09,10.0,North,3.5,-,N/A,,Overcast,350,2012-11-17 08:17:00
3:51 AM,66.2,64.4,94,30.09,10.0,NNE,17.3,24.2,N/A,,Overcast,20,2012-11-17 08:51:00
3:53 AM,66.9,63.0,87,30.09,10.0,NNE,20.7,27.6,N/A,,Overcast,20,2012-11-17 08:53:00
4:12 AM,64.4,60.8,88,30.10,10.0,NNE,9.2,23.0,0.00,,Overcast,20,2012-11-17 09:12:00
4:53 AM,64.9,62.1,90,30.09,10.0,North,8.1,-,0.00,,Scattered Clouds,360,2012-11-17 09:53:00
5:53 AM,66.9,62.1,84,30.10,10.0,NE,10.4,-,N/A,,Mostly Cloudy,40,2012-11-17 10:53:00
6:53 AM,68.0,61.0,78,30.12,10.0,NNE,4.6,-,N/A,,Overcast,30,2012-11-17 11:53:00
7:53 AM,69.1,63.0,81,30.12,10.0,ENE,8.1,-,N/A,,Overcast,70,2012-11-17 12:53:00
8:53 AM,72.0,64.0,76,30.13,10.0,North,4.6,-,N/A,,Partly Cloudy,10,2012-11-17 13:53:00
9:53 AM,75.0,64.9,71,30.13,10.0,NNE,11.5,-,N/A,,Clear,20,2012-11-17 14:53:00
10:53 AM,75.0,64.9,71,30.13,10.0,NNE,10.4,-,N/A,,Partly Cloudy,20,2012-11-17 15:53:00
11:53 AM,77.0,64.9,66,30.11,10.0,NNE,11.5,-,N/A,,Clear,30,2012-11-17 16:53:00
12:53 PM,77.0,64.0,64,30.09,10.0,NNE,13.8,-,N/A,,Scattered Clouds,30,2012-11-17 17:53:00
1:53 PM,75.0,64.9,71,30.08,10.0,North,15.0,-,N/A,,Mostly Cloudy,10,2012-11-17 18:53:00
2:16 PM,73.4,64.4,73,30.09,10.0,NNE,16.1,21.9,0.00,,Overcast,30,2012-11-17 19:16:00
2:53 PM,69.1,64.0,84,30.09,10.0,NNE,12.7,-,0.00,Rain,Light Rain,20,2012-11-17 19:53:00
3:53 PM,70.0,64.0,81,30.09,10.0,NNE,10.4,-,0.00,,Scattered Clouds,20,2012-11-17 20:53:00
4:53 PM,70.0,61.0,73,30.09,10.0,North,5.8,-,N/A,,Partly Cloudy,360,2012-11-17 21:53:00
5:53 PM,66.9,62.1,84,30.09,10.0,NNW,5.8,-,N/A,,Clear,340,2012-11-17 22:53:00
6:53 PM,71.1,63.0,75,30.10,10.0,NNE,8.1,-,N/A,,Clear,30,2012-11-17 23:53:00
7:53 PM,71.1,62.1,73,30.11,10.0,North,5.8,-,N/A,,Partly Cloudy,10,2012-11-18 00:53:00
8:53 PM,69.1,64.9,87,30.12,10.0,North,8.1,-,0.00,,Mostly Cloudy,350,2012-11-18 01:53:00
9:53 PM,68.0,63.0,84,30.12,10.0,North,12.7,-,N/A,,Partly Cloudy,10,2012-11-18 02:53:00
10:53 PM,71.1,63.0,75,30.11,10.0,NNE,12.7,23.0,N/A,,Clear,20,2012-11-18 03:53:00
11:53 PM,71.1,63.0,75,30.10,10.0,NNE,9.2,-,N/A,,Clear,30,2012-11-18 04:53:00